Location: Sovkhoz Novoaleksandrovskiy
(51.0833°N, 71.7500°E)
Time: 20:29:56
(UTC+00:00)

Daily predictions for brighter satellites

Satellite Brightness Start Highest point End
(mag) Time Altitude Azimuth Time Altitude Azimuth Time Altitude Azimuth
Cosmos 1486 Rocket 4.5 13:23:02 10° SSW 13:28:18 70° WNW 13:33:38 10° NNE
USA 215 3.5 13:22:04 10° E 13:28:33 65° NNE 13:35:02 10° WNW
Okean 2 3.8 13:26:45 10° NNW 13:30:50 68° W 13:34:53 10° S
Cosmos 773 Rocket 4.1 13:26:54 10° NNW 13:32:12 89° WSW 13:37:30 10° SSE
Cosmos 1025 Rocket 4.1 13:31:51 10° N 13:35:31 26° ENE 13:39:08 10° SE
Cosmos 2154 Rocket 4.2 13:31:35 10° SSE 13:37:41 53° E 13:43:50 10° NNE
Cosmos 1782 Rocket 4.1 13:34:24 10° SSE 13:38:27 36° E 13:42:29 10° NNE
USA 186 3.5 13:37:08 10° ESE 13:39:04 16° ENE 13:41:04 10° NNE
Cosmos 2227 Rocket 4.2 13:38:56 10° N 13:42:02 15° NNE 13:45:08 10° ENE
Cosmos 2369 Rocket 2.4 13:37:58 10° S 13:43:25 51° ESE 13:48:52 10° NE
Cosmos 2278 Rocket 4.1 13:39:19 10° WSW 13:44:15 29° NW 13:49:12 10° NNE
Nadezhda 3 Rocket 4.0 13:39:01 10° N 13:45:11 70° ENE 13:51:20 10° SSE
Cosmos 1346 Rocket 2.8 13:41:34 10° N 13:45:35 61° ENE 13:49:33 10° SSE
Cosmos 1833 4.2 13:41:31 10° NNW 13:47:09 65° NE 13:52:43 10° SE
Landsat 5 3.7 13:43:24 10° N 13:47:20 71° WNW 13:51:23 10° SSW
Cosmos 1656 Rocket 4.1 13:43:44 10° S 13:48:51 40° ESE 13:53:57 10° NE
GENESIS II 4.1 13:46:52 10° SW 13:50:42 82° SE 13:54:35 10° NE
CSL-04 Debris 4.4 13:46:14 10° SE 13:51:25 51° ENE 13:56:38 10° N
Cosmos 1238 Rocket 3.6 13:46:16 10° S 13:52:15 78° E 13:57:20 10° NNE
Cosmos 1441 Rocket 4.2 13:49:52 10° N 13:53:04 25° ENE 13:55:50 12° ESE
NOSS 3-2 (A) 4.1 13:54:00 10° S 13:58:43 28° ESE 14:03:58 10° ENE
Cosmos 1674 2.7 13:55:24 10° NNW 13:59:08 79° W 14:02:51 10° S
Cosmos 1626 2.0 13:55:45 10° N 13:59:28 67° ENE 14:03:08 10° SSE
Cosmos 2297 4.3 13:55:04 10° SW 14:00:44 64° NW 14:06:28 10° NNE
Cosmos 1184 Rocket 2.6 13:57:42 10° N 14:00:54 70° ENE 14:04:03 10° SSE
SL-27 R/B 3.1 13:58:10 10° N 14:01:13 33° ENE 14:03:18 17° ESE
Lacrosse 4 Rocket 4.1 13:59:20 10° WNW 14:01:22 13° NNW 14:03:25 10° N
Cosmos 1975 Rocket 3.0 13:58:04 10° N 14:02:32 70° E 14:06:59 10° SSE
Helios 1A Rocket 4.3 14:02:38 16° E 14:04:25 20° ENE 14:07:26 10° NNE
MetOp-A 4.2 13:59:41 10° SSE 14:04:57 63° ENE 14:10:16 10° N
Cosmos 1726 4.0 14:06:53 14° ENE 14:06:53 14° ENE 14:08:05 10° NE
OBJECT-B 1.6 14:04:42 17° ESE 14:06:33 30° ENE 14:09:23 10° N
USA 305 2.9 14:02:23 10° WNW 14:06:38 85° NNE 14:09:44 18° ESE
Cosmos 1300 Rocket 4.2 14:03:19 10° SSE 14:07:15 33° E 14:11:10 10° NNE
Ariane Rocket 4.2 14:07:40 16° E 14:10:17 24° ENE 14:14:19 10° N
Cosmos 2074 Rocket 4.4 14:05:04 10° SSW 14:11:18 68° WNW 14:17:37 10° N
Cosmos 158 Rocket 3.8 14:07:20 10° NNW 14:12:24 85° ENE 14:17:19 10° SSE
HJ-1C 3.8 14:10:34 10° S 14:13:48 62° WSW 14:17:03 10° NNW
Cosmos 1241 Rocket 4.4 14:13:45 10° NW 14:20:05 77° NE 14:25:11 16° SE
USA 276 2.3 14:17:57 10° W 14:21:03 60° SSW 14:22:23 30° ESE
APEX 3.6 14:16:51 10° NW 14:21:41 77° WSW 14:25:04 13° SSE
Okean-O 2.7 14:18:27 10° SSE 14:22:54 80° WSW 14:27:22 10° NNW
USA 307 2.8 14:19:01 10° WNW 14:23:17 88° SSW 14:25:44 25° ESE
Cosmos 2366 rocket 4.4 14:17:46 10° SSE 14:23:21 39° E 14:29:01 10° NNE
Cosmos 2263 4.1 14:18:10 10° SSW 14:23:44 73° ESE 14:29:22 10° NNE
Lacrosse 5 rocket 4.2 14:22:08 10° W 14:24:27 14° WSW 14:26:45 10° SSW
Cosmos 1538 Rocket 4.4 14:21:00 10° NNW 14:26:20 67° WSW 14:31:40 10° S
Cosmos 1805 3.2 14:24:53 10° S 14:28:46 89° W 14:32:40 10° N
ISS -3.8 14:25:37 10° W 14:29:00 86° SSW 14:30:17 35° ESE
ASTRO F (AKARI) 4.2 14:28:17 13° SSE 14:31:13 89° E 14:34:28 10° NNW
COSMOS 2487 3.5 14:28:30 10° N 14:31:26 26° ENE 14:31:35 26° ENE
Cosmos 2341 Rocket 4.0 14:27:02 10° S 14:33:18 68° E 14:39:40 10° NNE
CSL-04 Rocket 3.7 14:28:35 10° SSE 14:33:59 86° WSW 14:39:30 10° NNW
SL-14 R/B 3.2 14:30:09 10° NNW 14:34:08 86° W 14:38:03 10° S
PSLV R/B 4.0 14:30:30 10° NNE 14:34:34 51° E 14:38:34 10° S
Cosmos 1898 Rocket 4.3 14:30:17 10° SSE 14:34:39 28° E 14:39:05 10° NE
USA 306 2.9 14:30:36 10° WNW 14:34:50 75° SSW 14:36:51 30° SE
Meteor 2-20 4.4 14:28:54 10° N 14:35:02 76° ENE 14:41:07 10° SSE
SJ 16-02 1.4 14:30:46 10° SSW 14:35:11 80° WNW 14:39:40 10° NNE
Resurs 1-3 4.1 14:34:25 28° ESE 14:35:59 38° ENE 14:40:05 10° N
Geosat 3.9 14:31:30 10° NE 14:36:31 62° ESE 14:41:28 10° SSW
Cosmos 1867 4.3 14:31:30 10° NW 14:36:42 41° NE 14:39:17 26° E
YAOGAN 1 4.2 14:33:21 10° SSW 14:37:21 36° W 14:41:22 10° NNW
DMSP B5D2-2 4.1 14:32:46 10° NNE 14:38:06 85° WNW 14:43:23 10° SSW
Resurs 01 Rocket 2.7 14:37:37 25° ENE 14:38:11 26° ENE 14:41:48 10° N
Cosmos 2218 Rocket 4.1 14:32:36 10° SSE 14:38:32 51° E 14:44:32 10° NNE
Cosmos 1733 3.3 14:35:58 10° SSW 14:39:46 77° W 14:43:38 10° N
USA 308 2.9 14:38:34 10° WNW 14:42:49 73° SSW 14:44:31 35° SE
Cosmos 1315 Rocket 2.9 14:39:45 10° SSW 14:43:45 79° WNW 14:47:51 10° N
SJ-6B 2.8 14:43:26 24° SSE 14:45:51 75° ENE 14:49:54 10° N
Cosmos 1470 3.7 14:47:04 31° ENE 14:47:04 31° ENE 14:49:52 10° NNE
Meteor 1-15 Rocket 4.1 14:41:30 10° S 14:47:05 85° ESE 14:52:46 10° NNE
Meteor 1-22 Rocket 4.3 14:43:41 10° S 14:49:12 58° E 14:54:59 10° NNE
SeaSat 1 2.4 14:50:49 31° SE 14:53:13 75° ENE 14:58:10 10° NNW
IRS-1A Rocket 4.5 14:51:30 27° SE 14:54:37 59° ENE 15:00:26 10° N
ERBS 3.2 14:52:37 10° NW 14:55:41 35° NNE 14:55:59 34° NNE
Meteor 2-5 Rocket 3.8 14:53:23 10° NNW 14:58:57 78° W 15:04:21 11° S
CZ-4B R/B 2.2 14:57:21 10° N 15:00:21 48° WNW 15:03:24 10° SSW
Okean 1 Rocket 4.4 15:02:19 23° NE 15:02:19 23° NE 15:04:26 10° NNE
Cosmos 1943 Rocket 4.0 14:55:44 10° WSW 15:00:40 31° NW 15:05:41 10° NNE
CZ-4 R/B 4.1 14:58:16 10° SW 15:01:00 18° W 15:03:46 10° NW
Cosmos 1766 3.7 14:57:58 10° SSW 15:01:50 62° WNW 15:05:42 10° N
Meteor 2-20 Rocket 4.4 14:57:39 10° N 15:03:50 89° ENE 15:08:47 16° S
Cosmos 2297 Rocket 2.8 14:59:16 10° NNW 15:04:35 39° NE 15:05:54 34° E
H-2A R/B 3.6 15:00:48 10° N 15:04:38 35° WNW 15:08:23 10° SW
Cosmos 923 Rocket 4.3 15:02:29 10° NNW 15:07:39 65° WSW 15:10:49 23° S
Cosmos 1900 4.5 15:02:56 10° NW 15:07:49 68° SW 15:09:43 37° SSE
SPOT 3 Rocket 4.0 15:07:49 38° ENE 15:08:20 39° ENE 15:13:07 10° N
USA 186 3.0 15:08:22 29° SW 15:09:26 39° W 15:12:30 10° NNW
Okean 2 Rocket 3.0 15:06:13 10° S 15:10:37 86° W 15:15:03 10° N
CENTAUR R/B 2.5 15:04:55 10° SSW 15:10:45 63° SE 15:17:50 10° NE
NOSS 3-2 (C) 3.5 15:05:36 10° SSW 15:10:58 48° ESE 15:17:10 10° NE
USA 215 3.4 15:08:14 31° SE 15:11:35 67° SW 15:18:09 10° WNW
Cosmos 1025 Rocket 4.4 15:09:13 10° NNW 15:13:14 38° W 15:17:12 10° SSW
IGS 5A 3.5 15:15:00 59° ENE 15:15:00 59° ENE 15:18:58 10° N
Cosmos 1821 Rocket 4.2 15:16:30 42° ESE 15:17:44 47° E 15:23:48 10° NNE
Cosmos 1680 Rocket 3.7 15:14:22 10° NNW 15:19:36 68° WSW 15:21:56 33° S
MetOp-B 4.4 15:21:28 47° E 15:21:52 47° ENE 15:27:00 10° N
Cosmos 1536 Rocket 3.9 15:17:28 10° NNW 15:21:52 64° W 15:23:29 36° SSW
SL-8 Rocket 4.2 15:16:28 10° SSW 15:22:44 72° WNW 15:29:05 10° N
Terra 3.8 15:25:31 16° NE 15:25:31 16° NE 15:27:32 10° NNE
Cosmos 2369 Rocket 3.7 15:22:28 10° WSW 15:27:40 36° NW 15:32:51 10° NNE
Cosmos 2227 Rocket 2.7 15:22:18 10° NNW 15:27:42 42° NE 15:28:15 41° ENE
SPOT 5 4.3 15:32:08 27° NE 15:32:08 27° NE 15:35:48 10° N
Meteor 1-24 Rocket 4.4 15:28:25 10° NNW 15:33:37 51° W 15:37:30 18° SSW
Cosmos 2263 Rocket 4.0 15:32:28 10° N 15:36:12 18° NNE 15:37:10 17° NE
Cosmos 990 Rocket 4.0 15:32:45 10° SSW 15:37:54 76° WNW 15:43:09 10° NNE
OBJECT-B 3.3 15:37:37 16° WSW 15:38:42 19° W 15:41:01 10° NW
Helios 1A Rocket 3.5 15:38:51 49° WSW 15:39:15 51° W 15:43:14 10° NNW
Cosmos 2123 Rocket 4.2 15:34:01 10° N 15:40:09 50° ENE 15:40:19 50° ENE
Cosmos 1726 3.2 15:41:16 43° NW 15:41:16 43° NW 15:44:15 10° N
USA 238 DEB 3.5 15:35:13 10° SW 15:41:45 82° SE 15:48:44 10° NE
USA 238 3.5 15:35:20 10° SW 15:41:51 82° SE 15:48:49 10° NE
Cosmos 1727 Rocket 4.2 15:36:12 10° NNW 15:42:30 72° W 15:45:30 33° S
SPOT 1/Viking Rocket 3.6 15:43:07 63° NE 15:43:07 63° NE 15:47:59 10° N
Landsat 7 3.7 15:44:45 85° W 15:44:45 85° W 15:49:32 10° NNW
Cosmos 2151 Rocket 4.4 15:42:08 15° SSW 15:45:42 49° WNW 15:50:05 10° N
USA 305 4.4 15:42:32 10° WNW 15:45:46 29° SW 15:45:46 29° SW
SL-08 R/B 4.3 15:45:59 41° S 15:48:17 88° E 15:54:29 10° N
Ariane Rocket 3.3 15:47:52 52° SSW 15:48:51 63° WSW 15:53:56 10° NNW
NOSS 3-2 (A) 3.6 15:43:10 10° SW 15:48:54 72° NW 15:55:39 10° NE
DNEPR-1 R/B 4.1 15:46:31 10° NW 15:50:05 55° N 15:50:05 55° N
Iridium 4 Rocket 3.8 15:47:52 10° N 15:50:54 45° N 15:50:54 45° N
USA 281 3.7 15:55:07 10° NNE 15:59:37 42° ENE 15:59:37 42° ENE
Gbstr 26 Del rocket 4.3 15:54:27 10° SW 16:02:01 70° SSE 16:03:13 61° ESE
ISS -0.8 16:02:35 10° W 16:03:14 14° W 16:03:14 14° W
Cosmos 2219 3.3 16:01:24 10° NNW 16:06:35 69° NNE 16:06:35 69° NNE
Timation 2 Rocket 4.2 16:00:21 10° NNW 16:07:13 65° NE 16:07:35 64° ENE
Resurs 01 Rocket 2.8 16:15:12 41° WNW 16:15:12 41° WNW 16:18:44 10° NNW
SJ 16-02 4.4 16:12:04 10° W 16:14:33 15° NW 16:17:03 10° N
Cosmos 1898 Rocket 4.2 16:11:23 10° SW 16:16:28 51° WNW 16:21:37 10° NNE
Cosmos 1934 Rocket 4.4 16:18:08 51° NE 16:18:08 51° NE 16:22:48 10° NNE
Cosmos 1867 4.2 16:15:09 10° NW 16:19:57 51° W 16:19:57 51° W
ARIANE 5 R/B 4.4 16:26:06 26° N 16:26:06 26° N 16:28:10 10° N
SeaSat 1 4.4 16:30:38 20° WSW 16:31:13 21° WSW 16:34:53 10° WNW
Cosmos 2344 4.5 16:35:39 10° NW 16:43:45 52° NNE 16:46:42 41° ENE
Cosmos 2297 Rocket 3.2 16:43:22 10° NW 16:47:43 42° W 16:47:43 42° W
ERS-1 Rocket 4.5 16:59:15 33° NNW 16:59:15 33° NNW 17:02:04 10° NNW
Terra 3.8 17:04:25 25° NNW 17:04:25 25° NNW 17:06:26 10° NNW
CENTAUR R/B 3.5 16:55:40 10° WSW 17:01:47 47° NNW 17:09:07 10° NE
NOSS 3-2 (C) 4.2 16:56:11 10° WSW 17:01:53 51° NNW 17:08:37 10° NE
Cosmos 2227 Rocket 3.6 17:06:28 10° NW 17:10:04 33° WNW 17:10:04 33° WNW
Cosmos 2263 Rocket 3.7 17:15:49 10° NNW 17:18:51 32° NNW 17:18:51 32° NNW
USA 281 4.2 17:39:53 10° NNE 17:45:56 41° NW 17:46:27 40° WNW
ATLAS 5 CENTAUR R/B 4.3 17:54:10 10° WNW 18:07:03 38° NNW 18:07:40 37° N
ATLAS 3B R/B 4.5 18:14:47 22° NE 18:14:47 22° NE 18:17:00 10° NE
Cosmos 1980 Rocket 4.4 18:49:01 20° NNE 18:49:01 20° NNE 18:50:45 10° NNE
CENTAUR R/B 4.3 18:48:06 10° WNW 18:54:17 32° N 19:01:26 10° ENE
Cosmos 2344 4.5 18:50:01 10° NW 18:56:39 56° WNW 18:56:39 56° WNW
Cosmos 2278 Rocket 4.4 18:59:17 10° NNW 19:02:10 21° NNE 19:02:10 21° NNE
Cosmos 2322 Rocket 4.3 19:41:29 21° NNE 19:41:29 21° NNE 19:43:18 10° NNE
ADEOS Rocket 4.3 19:40:42 46° NE 19:40:42 46° NE 19:47:29 10° N
SL-16 R/B 3.9 19:59:00 35° NNE 19:59:00 35° NNE 20:03:07 10° N
ATLAS 3B R/B 3.9 20:02:01 36° NNW 20:02:01 36° NNW 20:08:03 10° NE
Cosmos 2360 Rocket 4.1 20:09:08 26° NNE 20:09:08 26° NNE 20:11:29 10° NNE
Cosmos 1943 Rocket 4.4 20:14:51 10° NNW 20:19:09 21° NE 20:23:27 10° E
Cosmos 2219 Rocket 4.0 20:22:46 26° NE 20:22:46 26° NE 20:25:12 10° NE
Cosmos 2333 Rocket 3.9 20:27:31 29° NE 20:27:31 29° NE 20:30:13 10° NNE
Resurs 1-4 Rocket 4.1 20:20:12 10° NNE 20:22:32 24° NE 20:22:32 24° NE
Cosmos 1980 Rocket 4.5 20:30:47 16° NNW 20:30:47 16° NNW 20:34:08 10° N
ADEOS II 4.2 20:28:05 10° NE 20:30:43 21° ENE 20:30:43 21° ENE
CENTAUR R/B 4.0 20:39:47 10° NW 20:46:57 43° NNE 20:55:06 10° E
Cosmos 2278 Rocket 4.5 20:42:58 10° NNW 20:43:58 15° NNW 20:43:58 15° NNW
USA 234 4.0 20:42:32 10° ENE 20:47:03 44° E 20:47:03 44° E
NOSS 3-1 (A) 4.3 20:52:37 44° NE 20:52:37 44° NE 20:57:06 10° NE
SL-16 R/B 4.1 20:52:40 23° NNW 20:52:40 23° NNW 20:55:58 10° NNE
SL-16 R/B 4.4 21:01:56 16° ESE 21:02:22 17° E 21:05:48 10° ENE
IDEFIX/ARIANE 42P 4.2 20:59:44 10° NNE 21:03:38 28° E 21:03:38 28° E
ATLAS 5 CENTAUR R/B 3.8 21:16:22 23° N 21:16:22 23° N 21:19:00 10° NE
CZ-4C R/B 3.8 21:16:41 26° E 21:16:41 26° E 21:20:30 10° ENE
Cosmos 2322 Rocket 4.0 21:23:17 21° NNW 21:23:17 21° NNW 21:26:54 10° NNE
Cosmos 1980 4.4 21:25:34 50° ENE 21:25:34 50° ENE 21:29:56 10° NE
NOSS 0 Rocket 4.2 21:25:17 63° ENE 21:25:17 63° ENE 21:30:33 10° NE
ADEOS Rocket 4.2 21:27:40 41° NW 21:27:40 41° NW 21:33:06 10° NNW
NOSS 3-2 (A) 4.4 21:18:56 10° NW 21:25:59 60° NE 21:34:11 10° ESE
CZ-2D R/B 3.2 21:21:14 10° NNE 21:24:33 38° N 21:24:33 38° N
COSMOS 2428 3.5 21:29:34 44° N 21:29:34 44° N 21:33:41 10° NNE
NOSS 3-1 (C) 4.2 21:31:03 42° NNW 21:31:03 42° NNW 21:37:20 10° NE
Cosmos 2237 Rocket 2.7 21:33:14 57° ENE 21:33:14 57° ENE 21:37:56 10° NNE
Cosmos 2285 Rocket 4.2 21:34:54 62° ESE 21:34:54 62° ESE 21:41:04 10° NNE
SL-16 R/B 4.0 21:44:07 25° NW 21:44:07 25° NW 21:46:51 10° NNW
Meteor 1-14 Rocket 4.4 21:39:12 10° N 21:44:25 68° NNE 21:44:25 68° NNE
IRS-1D 3.9 21:43:22 10° NNE 21:48:08 64° ENE 21:48:08 64° ENE
Cosmos 2360 Rocket 3.9 21:50:54 21° NNW 21:50:54 21° NNW 21:55:02 10° NNE
ATLAS 3B R/B 4.3 21:49:16 13° NW 21:54:17 29° N 22:00:26 10° ENE
SL-19 R/B 4.3 21:51:44 10° NNE 21:56:39 70° N 21:56:39 70° N
Cosmos 1943 Rocket 2.2 21:58:08 10° NNW 22:03:52 77° ENE 22:09:32 10° SE
Cosmos 2219 Rocket 3.4 22:04:30 30° NW 22:04:30 30° NW 22:08:59 10° NNE
CZ-2C R/B 4.5 22:00:23 10° NE 22:04:39 25° E 22:08:38 11° SE
Resurs 1-4 Rocket 3.3 22:00:12 10° N 22:03:36 31° NNW 22:03:36 31° NNW
GEOS 3 Rocket 3.8 22:00:29 10° NE 22:05:34 62° SE 22:05:34 62° SE
Cosmos 2333 Rocket 3.5 22:09:31 27° NW 22:09:31 27° NW 22:14:14 10° NNE
Cosmos 1486 Rocket 4.2 22:04:04 10° NNW 22:09:26 73° ENE 22:14:45 10° SSE
Meteor 2-8 Rocket 4.4 22:10:26 66° WNW 22:10:26 66° WNW 22:16:18 10° N
Cosmos 1812 4.4 22:13:36 30° NNE 22:13:36 30° NNE 22:15:37 10° N
Cosmos 2266 Rocket 4.3 22:06:24 10° NNW 22:11:07 47° NW 22:11:07 47° NW
ADEOS II 2.5 22:07:18 10° N 22:11:38 51° NNW 22:11:38 51° NNW
Meteor 2-15 4.3 22:16:11 71° WSW 22:16:33 73° WNW 22:22:42 10° N
MSX 3.8 22:14:11 10° NNE 22:20:01 84° ESE 22:21:12 59° S
USA 229 DEB 4.4 22:18:34 36° WNW 22:20:16 42° NNW 22:26:59 10° NE
USA 229 4.4 22:18:40 36° WNW 22:20:22 42° NNW 22:27:04 10° NE
Cosmos 1818 4.3 22:20:12 40° SSE 22:21:24 47° ESE 22:26:38 10° NE
X-37B 3.7 22:25:20 11° ESE 22:25:20 11° ESE 22:25:31 10° ESE
ALOS 4.3 22:21:36 10° NE 22:25:30 25° E 22:29:22 10° SSE
Meteor 1-26 Rocket 4.4 22:26:07 52° NW 22:26:07 52° NW 22:30:59 10° N
SL-24 DEB 4.5 22:22:40 10° N 22:27:27 70° E 22:28:30 52° SSE
BREEZE-M DEB (TANK) 3.7 22:14:55 10° WNW 22:28:13 52° SW 22:32:07 10° SE
Helios 1B rocket 4.2 22:25:54 10° N 22:27:48 23° NNW 22:27:48 23° NNW
Cosmos 2369 Rocket 2.5 22:26:25 10° NNW 22:32:01 64° NE 22:37:33 10° SE
USA 234 3.4 22:25:39 10° ENE 22:32:08 67° NNW 22:34:23 42° W
Cosmos 1302 Rocket 3.9 22:34:28 69° WSW 22:34:56 74° WNW 22:40:14 10° NNE
Cosmos 1656 Rocket 4.5 22:29:43 10° NNW 22:35:00 49° NE 22:40:15 10° SE
CBERS-1 3.9 22:31:23 10° N 22:36:28 65° WNW 22:36:46 64° W
IRS-1C 4.1 22:32:46 10° NNE 22:38:09 79° ESE 22:40:08 40° S
CENTAUR R/B 3.1 22:30:35 10° NW 22:38:35 89° SW 22:47:33 10° SE
NOSS 3-2 (C) 4.1 22:31:50 10° NW 22:39:09 81° NE 22:47:37 10° SE
Cosmos 1515 Rocket 3.5 22:40:01 73° SSE 22:40:24 82° E 22:44:46 10° NNE
BREEZE-M DEB (TANK) 2.6 22:41:23 55° E 22:41:23 55° E 22:43:30 10° ENE
Cosmos 1544 3.8 22:38:36 10° N 22:41:18 46° N 22:41:18 46° N
ARIANE 5 R/B 2.6 22:38:00 10° NNE 22:43:05 72° ESE 22:45:17 34° S
IDEFIX/ARIANE 42P 2.8 22:39:03 10° N 22:44:08 49° WNW 22:44:25 49° WNW
SL-16 R/B 2.1 22:43:50 46° SSW 22:45:38 87° ESE 22:51:22 10° NNE
Meteor 1-27 Rocket 4.4 22:40:26 10° S 22:46:08 57° E 22:51:58 10° NNE
Meteor 2-6 Rocket 4.1 22:46:34 46° SSW 22:48:15 74° WNW 22:54:01 10° N
Cosmos 2297 3.8 22:44:36 10° NW 22:50:08 50° WSW 22:55:38 10° S
SL-08 ROCKET BODY 4.2 22:44:58 10° NNW 22:50:50 81° W 22:56:42 10° S
Cosmos 1992 Rocket 4.1 22:51:09 35° S 22:53:23 76° ESE 22:58:37 10° NNE
SL-24 R/B - RUBIN 2 4.2 22:53:57 45° WSW 22:55:41 67° NW 23:01:05 10° NE
NOSS 2-2 (C) 4.4 22:56:19 29° NNW 22:56:22 29° NNW 22:59:59 10° NE
COSMOS 2441 4.5 22:51:53 10° N 22:56:41 56° WNW 22:57:28 49° WSW
CZ-2D R/B 3.6 22:52:52 10° NNE 22:57:13 75° ESE 22:59:03 33° S
Cosmos 1536 2.7 22:54:14 10° N 22:58:14 89° E 23:00:51 21° S
SJ 16-02 3.1 22:54:28 10° N 22:58:32 33° ENE 23:02:32 10° ESE
CZ-4B R/B 3.8 22:53:40 10° NNE 22:58:53 70° ESE 23:03:09 16° S
Dummy Sat-02 4.5 22:55:09 10° N 22:58:57 76° W 22:59:01 75° WSW
Cosmos 1244 Rocket 4.4 22:53:23 10° NNW 22:59:33 64° W 23:05:37 10° S
ATLAS 5 CENTAUR R/B 4.0 22:57:53 12° NW 23:00:58 20° N 23:04:51 10° NE
CZ-4C R/B 2.2 23:01:52 42° WSW 23:03:36 67° NW 23:09:52 10° NE
USA 290 3.5 23:04:14 27° SSE 23:05:28 39° ESE 23:08:34 10° NE
Cosmos 44 Rocket 4.0 23:02:37 24° S 23:05:37 55° ESE 23:10:42 10° NE
CZ-2D R/B 3.9 23:02:48 10° NNW 23:05:42 15° NW 23:05:51 15° NW
Cosmos 2228 Rocket 3.6 23:02:49 11° S 23:07:08 63° E 23:11:41 10° NNE
USA 238 DEB 3.8 23:03:03 10° NW 23:10:14 70° SW 23:17:47 10° SSE
USA 238 3.8 23:03:09 10° NW 23:10:20 71° SW 23:17:54 10° SSE
Cosmos 2263 4.2 23:07:35 10° NNW 23:13:18 89° WSW 23:19:01 10° SSE
COSMOS 2428 4.5 23:11:34 15° NW 23:13:34 18° NNW 23:17:24 10° NNE
Cosmos 2237 Rocket 3.3 23:15:04 25° WNW 23:16:48 30° NW 23:21:48 10° NNE
NOSS 3-2 (A) 4.2 23:09:51 10° NW 23:17:03 52° WSW 23:25:12 10° SSE
IRS-P3 4.3 23:13:38 10° N 23:18:50 53° WNW 23:21:28 28° SW
Cosmos 1933 Rocket 4.1 23:17:31 10° NNW 23:21:32 35° W 23:21:40 35° W
Cosmos 1869 Rocket 3.4 23:17:50 10° NNW 23:22:16 72° W 23:26:42 10° S
PAYLOAD A 3.7 23:19:10 10° NNE 23:23:53 74° WNW 23:27:41 16° SSW
MOS 1 Rocket 3.4 23:22:51 16° SSW 23:25:59 42° W 23:30:06 10° NNW
FENGYUN 3A 3.6 23:21:22 10° NNE 23:26:48 90° ESE 23:32:13 10° SSW
Cosmos 1733 Rocket 4.1 23:23:07 10° N 23:27:23 48° ENE 23:31:40 10° SSE
Lacrosse 5 4.0 23:24:52 10° S 23:28:39 21° SE 23:32:27 10° ENE
Cosmos 1503 Rocket 4.2 23:25:16 10° NW 23:30:12 45° WSW 23:35:08 10° S
Spot 4 Rocket 3.9 23:26:13 10° NNE 23:31:22 77° WNW 23:36:30 10° SSW
S3M 4.0 23:25:06 10° S 23:31:26 89° E 23:37:43 10° N
SL-8 R/B 3.8 23:29:21 29° WSW 23:31:40 64° S 23:36:28 10° E
SL-08 R/B 3.9 23:32:36 25° SW 23:34:03 31° W 23:38:10 10° NNW
Cosmos 1777 Rocket 3.9 23:28:59 10° NNW 23:34:14 85° WSW 23:39:26 10° SSE
Cosmos 1386 Rocket 4.4 23:32:33 10° NNW 23:38:35 63° W 23:44:40 10° S
Cosmos 1709 Rocket 4.0 23:34:37 10° N 23:40:47 86° E 23:46:56 10° S
Cosmos 1515 3.6 23:38:25 10° SSW 23:42:14 76° W 23:46:05 10° N
CZ-2C R/B 2.6 23:38:06 10° N 23:43:11 55° WNW 23:48:01 11° SW
GEOS 3 Rocket 4.3 23:38:42 10° NE 23:43:32 40° NNW 23:46:41 19° W
ATLAS 3B R/B 3.7 23:39:49 10° NW 23:46:37 49° NNE 23:53:42 10° ESE
Cosmos 1943 Rocket 3.3 23:42:51 10° NW 23:47:01 21° W 23:51:10 10° SSW
Cosmos 1354 Rocket 4.5 23:44:39 10° NW 23:49:28 37° WSW 23:54:15 10° S
Cosmos 2219 Rocket 4.3 23:47:50 10° NW 23:49:55 12° NNW 23:52:02 10° N
ADEOS II 4.0 23:49:04 10° NNW 23:51:06 12° NW 23:52:33 11° WNW
Okean 1 3.3 23:47:13 10° S 23:51:11 87° E 23:55:11 10° N
Cosmos 2333 Rocket 4.4 23:54:00 10° NNW 23:55:52 11° NNW 23:57:43 10° N
